Dewpoint
46 47 47 49 50 50 48 43 34 45 45 37 36 31 33 36 34 35 34 31 31 26 26 28 29 30 33 35 35 31 32 29 29 29 33 35 35 29 24 21 21 20 20 19
46 47 47 50 51 49 46 39 39 45 45 32 32 34 34 34 33 34 33 32 33 33 28 28 31 33 36 35 34 30 30 26 17 21 25 30 30 31 29 25 24 20 17 19
46 47 47 49 51 50 46 40 33 39 42 38 29 32 33 32 36 36 35 32 33 31 29 31 31 32 36 35 36 38 33 27 21 18 21 28 28 29 29 25 19 23 20 23
46 46 47 49 51 50 46 40 35 38 33 35 32 33 34 32 33 34 35 33 32 28 27 28 30 34 33 34 36 33 29 25 24 26 29 29 29 29 29 24 25 21 23 24
46 44 49 50 51 51 45 38 36 34 31 33 32 35 32 32 33 32 31 31 32 30 28 27 28 32 30 29 32 31 30 24 25 22 24 25 27 28 30 29 28 27 24 25
46 46 48 48 49 50 44 42 38 34 34 32 31 32 33 33 33 34 33 32 32 31 32 32 32 34 33 32 30 30 28 26 21 20 22 21 20 23 27 28 29 28 26 28
45 45 48 49 49 49 44 41 37 33 30 31 32 33 34 34 33 33 33 33 32 34 34 33 31 31 30 30 30 32 27 25 22 17 19 13 21 27 26 28 27 27 26 26
45 48 48 50 48 48 43 38 36 33 30 30 32 35 33 32 32 31 32 34 34 35 31 29 28 28 28 29 29 30 29 26 22 17 16 18 22 28 27 25 26 26 25 26
46 48 50 51 51 47 39 37 37 33 32 30 28 34 32 30 28 30 33 35 36 34 31 27 22 21 23 24 25 28 27 27 24 22 18 15 20 28 29 29 21 27 27 28
46 49 51 50 49 47 39 36 35 32 28 27 29 33 32 32 30 29 30 31 33 33 29 27 25 22 24 23 23 23 25 24 21 21 19 21 24 28 28 19 19 28 29 29
46 49 50 51 49 46 39 33 34 31 28 28 30 30 30 31 31 30 31 31 32 32 28 27 26 24 24 22 22 22 24 21 22 22 19 15 26 28 23 25 28 29 29 29
47 50 50 50 49 46 38 32 34 33 30 28 31 30 31 31 30 32 30 29 31 32 30 28 27 25 24 23 21 24 22 24 23 24 23 26 28 27 28 29 29 27 28 29
46 50 49 49 49 44 37 33 32 32 29 29 29 28 30 31 31 32 31 31 32 31 31 30 28 26 26 23 23 21 24 26 26 25 25 26 27 28 29 28 28 29 30 30
49 50 49 49 44 41 37 33 34 32 30 29 28 31 31 33 32 32 32 33 32 32 31 29 28 27 27 24 24 25 27 26 24 24 25 26 28 29 29 29 29 29 29 29
49 49 48 49 43 42 38 36 36 33 31 27 27 29 32 33 32 32 32 31 30 29 27 26 26 27 25 22 24 23 25 25 25 24 26 26 26 29 30 28 27 28 26 25
48 47 48 47 44 40 33 30 34 34 33 29 28 31 30 32 31 31 31 31 29 28 27 25 26 27 24 21 20 20 22 26 24 24 26 27 28 29 28 26 26 26 26 27
47 48 46 43 41 37 30 29 33 36 34 28 24 24 29 30 30 30 30 30 29 28 27 25 24 25 25 22 17 19 26 28 27 28 29 27 27 27 28 26 26 27 26 26
47 45 44 42 41 38 33 35 38 33 29 28 21 25 25 29 28 26 30 27 27 28 26 26 24 25 25 21 23 24 28 28 27 28 25 24 27 26 25 25 25 23 23 23
45 44 42 37 34 30 32 38 36 34 28 22 21 21 20 29 29 29 28 28 23 28 26 26 26 23 19 20 21 26 29 27 27 26 24 24 22 22 21 20 20 20 19 20
43 37 32 29 32 40 38 30 25 28 28 27 19 23 24 27 27 26 24 26 24 15 25 26 25 24 26 27 26 27 30 28 27 23 22 23 20 19 17 18 19 20 21 21
36 32 30 34 38 31 26 22 21 24 21 26 24 26 26 28 23 24 27 17 21 14 18 22 18 21 24 25 26 28 28 28 25 20 19 20 19 19 19 19 20 21 22 22
35 35 35 32 27 23 12 10 22 19 18 25 26 25 27 27 28 26 25 19 17 12 23 21 15 20 24 25 25 25 25 24 23 22 21 21 21 21 21 21 21 21 22 23
35 30 23 23 18 7 4 1 9 15 25 26 27 24 26 27 27 25 21 15 14 24 22 14 18 22 24 25 24 24 22 22 21 20 20 20 21 22 21 21 21 20 20 21
29 23 14 17 9 13 15 15 18 25 25 26 25 26 25 25 23 23 13 23 22 16 14 11 16 20 23 24 23 23 21 19 18 19 21 21 22 20 21 21 21 21 21 21
24 21 13 15 20 25 24 17 22 24 28 25 24 24 22 20 20 23 23 20 14 12 10 15 17 20 23 23 21 19 18 18 19 19 17 16 15 17 18 19 20 21 21 20
22 15 14 23 22 23 20 15 20 23 25 25 22 18 17 20 20 15 9 8 7 12 15 19 20 23 22 21 20 19 19 20 20 19 19 19 19 19 18 18 19 19 19 19
16 16 25 22 19 20 21 23 24 26 21 15 16 6 8 18 11 11 15 12 16 17 17 19 22 22 21 19 20 22 22 21 19 18 18 18 19 13 13 16 19 19 20 20
Lifted_Index
2 3 3 4 4 5 7 7 7 8 9 8 7 7 6 6 5 4 3 3 3 3 3 2 2 2 2 2 2 2 1 1 1 1 1 1 1 2 2 2 2 2 2 2
2 3 4 4 5 6 7 7 7 8 9 8 7 6 6 5 4 4 3 3 3 3 3 3 2 2 2 2 2 2 2 1 1 1 1 2 2 2 2 2 2 2 2 2
3 3 4 5 6 7 7 7 7 8 8 8 7 6 6 5 4 3 3 3 3 3 3 3 3 3 3 2 2 2 2 2 2 2 2 2 2 2 2 2 2 2 2 3
3 4 4 5 6 7 7 7 7 8 8 8 8 6 5 5 4 3 3 3 3 3 4 3 3 3 3 3 3 3 3 2 2 2 3 3 2 2 2 2 3 3 3 3
4 5 5 5 6 7 7 8 8 8 9 9 8 7 5 5 4 3 3 3 3 4 4 4 4 3 3 3 3 3 3 3 3 3 3 3 3 3 3 3 3 3 3 3
5 5 6 6 7 7 8 8 8 9 9 9 8 7 6 5 5 4 4 3 3 4 4 4 4 4 4 4 3 3 3 3 3 3 3 3 2 3 3 3 3 3 3 3
6 6 7 8 8 9 9 9 9 9 10 9 9 8 7 7 6 5 5 4 4 4 4 4 4 4 4 4 4 3 3 3 3 3 2 2 3 3 3 3 3 3 3 3
7 7 7 8 9 9 9 9 9 9 10 10 9 8 8 8 7 7 6 5 5 5 5 4 4 4 4 4 4 4 4 3 3 3 2 2 3 3 4 3 3 3 3 3
8 8 7 8 9 10 10 10 10 9 10 10 10 9 9 9 8 8 7 6 6 6 5 5 4 4 4 4 4 4 4 4 3 3 2 2 3 4 4 4 4 4 4 4
8 8 7 8 9 10 10 11 11 10 9 10 10 10 10 9 9 9 8 8 7 7 6 6 5 5 5 5 5 5 5 4 4 3 3 3 4 5 5 4 4 4 5 4
8 8 8 8 9 10 10 11 11 10 10 10 11 11 10 10 10 9 9 9 8 8 8 7 7 7 7 6 6 6 6 5 5 5 4 5 5 6 5 5 5 5 5 5
8 8 8 9 9 10 11 12 12 11 10 11 11 11 11 11 10 10 10 10 9 9 9 9 9 8 8 8 7 7 7 7 6 6 6 6 6 6 6 6 6 6 6 6
8 8 9 9 10 11 11 12 13 12 11 11 11 12 12 12 11 11 10 10 10 9 9 9 9 9 9 8 8 8 7 7 7 7 6 6 6 6 6 6 6 6 7 7
9 9 9 10 11 12 12 13 13 13 12 11 11 12 12 12 12 11 11 10 10 10 9 9 9 9 8 8 8 8 7 7 7 6 6 6 6 6 6 6 6 7 7 8
9 10 10 11 12 13 13 13 14 14 13 12 12 12 12 12 12 11 11 10 10 10 9 9 9 9 8 8 8 8 7 7 6 6 6 6 6 7 7 7 7 8 8 8
10 10 11 11 12 13 13 14 14 15 14 13 12 12 12 12 12 11 11 10 10 10 9 9 9 9 8 8 7 7 7 7 7 7 7 7 7 7 8 8 8 8 9 9
11 11 12 12 13 14 14 14 15 15 14 13 12 12 12 12 11 11 11 10 10 10 10 9 9 9 8 8 7 8 8 8 8 8 8 8 8 8 9 9 9 10 10 11
12 12 13 13 13 14 15 15 16 15 14 13 12 11 11 12 11 11 11 10 10 10 10 9 9 9 8 7 8 8 8 9 9 9 9 9 9 9 9 10 11 11 11 11
13 13 14 14 14 15 15 16 16 15 14 13 12 11 11 12 11 11 11 10 10 10 10 9 9 8 8 8 8 9 9 9 9 9 9 9 9 9 10 11 11 11 10 10
14 14 13 14 14 15 15 15 15 14 14 14 13 12 12 12 11 11 11 11 10 9 9 9 8 7 8 8 9 9 9 9 9 9 9 9 9 10 11 11 11 11 10 11
14 13 13 13 14 14 14 14 14 13 13 14 14 13 12 12 11 11 11 11 9 8 8 8 7 7 8 9 9 9 9 9 9 9 9 10 11 11 11 11 11 11 11 11
13 13 13 13 13 13 13 13 13 13 13 13 13 13 12 12 12 11 11 10 9 8 8 7 7 8 9 10 10 10 10 10 10 10 11 12 12 12 11 11 12 12 12 12
13 12 12 12 12 12 12 11 12 12 12 12 12 12 12 12 12 11 10 9 9 8 7 7 8 9 10 10 10 10 10 10 10 11 12 12 12 12 12 13 13 13 13 13
12 11 10 10 11 11 11 11 11 12 12 12 12 12 11 11 11 10 10 9 9 8 7 7 9 10 11 11 11 10 11 11 11 12 12 12 12 13 13 14 14 13 13 13
12 11 10 10 11 11 11 11 12 12 13 13 12 12 11 10 10 10 9 8 8 7 8 9 10 11 11 11 11 11 11 12 12 12 13 13 13 14 14 14 14 13 12 12
12 11 11 11 11 11 11 12 12 13 14 13 12 11 10 9 9 9 9 8 8 9 10 11 11 12 12 11 11 12 12 12 13 13 14 14 14 14 14 14 13 13 12 11
12 11 11 11 11 11 12 12 13 14 14 13 12 10 9 9 9 9 9 9 9 10 11 12 12 12 12 12 12 12 13 13 13 14 14 15 15 14 14 14 13 12 11 10